This is the latest recevied weather packets stored in our database for station/object Reichnbch. If no packets are shown the sender has not sent any weather packets the latest 10 day(s).
| Time | Temp. | Humidity | Pressure | Rain* | Wind** | Luminosity | Snow |
|---|---|---|---|---|---|---|---|
| 1777897935 | 21.11° C | 48% | 1013.6 hPa | 0 mm | - | - | - |
| 1777896130 | 20.56° C | 52% | 1014 hPa | 0 mm | - | - | - |
| 1777894331 | 20.56° C | 57% | 1014.1 hPa | 0 mm | - | - | - |
| 1777892530 | 20.56° C | 56% | 1014.3 hPa | 0 mm | - | - | - |
| 1777890735 | 20.56° C | 55% | 1014.6 hPa | 0 mm | - | - | - |
| 1777888932 | 20° C | 54% | 1014.8 hPa | 0 mm | - | - | - |
| 1777887130 | 18.89° C | 53% | 1015.1 hPa | 0 mm | - | - | - |
| 1777885331 | 18.33° C | 59% | 1015.3 hPa | 0 mm | - | - | - |
| 1777883533 | 17.78° C | 61% | 1015.5 hPa | 0 mm | - | - | - |
| 1777881731 | 16.67° C | 65% | 1015.7 hPa | 0 mm | - | - | - |
| 1777879930 | 15.56° C | 69% | 1015.7 hPa | 0 mm | - | - | - |
| 1777878132 | 14.44° C | 73% | 1015.7 hPa | 0 mm | - | - | - |
| 1777876331 | 12.78° C | 79% | 1015.7 hPa | 0 mm | - | - | - |
| 1777874532 | 11.67° C | 80% | 1015.7 hPa | 0 mm | - | - | - |
| 1777872731 | 11.11° C | 82% | 1015.8 hPa | 0 mm | - | - | - |
| 1777870930 | 11.11° C | 79% | 1015.7 hPa | 0 mm | - | - | - |
| 1777869131 | 11.11° C | 76% | 1015.6 hPa | 0 mm | - | - | - |
| 1777867331 | 11.67° C | 76% | 1015.6 hPa | 0 mm | - | - | - |
| 1777865531 | 11.67° C | 74% | 1015.6 hPa | 0 mm | - | - | - |
| 1777863732 | 12.22° C | 74% | 1015.6 hPa | 0 mm | - | - | - |
| 1777861931 | 12.78° C | 72% | 1015.6 hPa | 0 mm | - | - | - |
| 1777860132 | 12.78° C | 71% | 1015.5 hPa | 0 mm | - | - | - |
| 1777858331 | 13.33° C | 70% | 1015.6 hPa | 0 mm | - | - | - |
| 1777856531 | 13.33° C | 70% | 1015.5 hPa | 0 mm | - | - | - |
| 1777854730 | 13.89° C | 67% | 1015.5 hPa | 0 mm | - | - | - |
* Rain since midnight (hover to see other rain measurements)
** Current wind speed in m/s (hover to see current wind gust speed)